QPF
0.07 0.09 0.07 0.04 0.03 0.02 0.01 0.01 0.01 0.01 0.01 0.01 0.01 0.01 0.00 0.01 0.01 0.01 0.01 0.01 0.02 0.03 0.02 0.01 0.01 0.00 0.00 0.00 0.01 0.02 0.02 0.02 0.03 0.03 0.03 0.04 0.05 0.05 0.04 0.04 0.02 0.01 0.01 0.01
0.06 0.06 0.05 0.04 0.03 0.03 0.03 0.02 0.02 0.01 0.01 0.01 0.00 0.00 0.01 0.01 0.01 0.01 0.01 0.02 0.02 0.03 0.03 0.03 0.02 0.01 0.01 0.01 0.01 0.02 0.02 0.03 0.03 0.03 0.03 0.04 0.05 0.06 0.05 0.04 0.03 0.02 0.01 0.01
0.05 0.04 0.03 0.04 0.05 0.05 0.04 0.03 0.02 0.02 0.02 0.02 0.01 0.00 0.00 0.01 0.00 0.00 0.01 0.02 0.02 0.03 0.03 0.04 0.03 0.03 0.02 0.01 0.01 0.02 0.03 0.03 0.03 0.03 0.03 0.03 0.03 0.04 0.05 0.06 0.06 0.05 0.04 0.02
0.04 0.03 0.03 0.03 0.04 0.04 0.05 0.04 0.02 0.02 0.03 0.03 0.03 0.02 0.01 0.00 0.00 0.01 0.01 0.02 0.02 0.02 0.03 0.03 0.03 0.04 0.04 0.03 0.02 0.02 0.02 0.02 0.03 0.03 0.03 0.03 0.03 0.04 0.06 0.08 0.08 0.08 0.08 0.07
0.04 0.03 0.02 0.02 0.03 0.04 0.04 0.04 0.03 0.03 0.04 0.04 0.03 0.03 0.01 0.01 0.01 0.01 0.01 0.01 0.01 0.01 0.02 0.01 0.02 0.03 0.03 0.03 0.03 0.03 0.02 0.02 0.03 0.03 0.03 0.03 0.02 0.03 0.04 0.05 0.07 0.07 0.07 0.08
0.03 0.03 0.03 0.02 0.02 0.03 0.04 0.05 0.05 0.05 0.07 0.07 0.02 0.02 0.01 0.01 0.01 0.00 0.00 0.01 0.01 0.01 0.01 0.01 0.01 0.01 0.02 0.02 0.02 0.02 0.02 0.03 0.03 0.03 0.04 0.04 0.03 0.02 0.02 0.05 0.07 0.06 0.06 0.06
0.05 0.03 0.03 0.03 0.03 0.03 0.04 0.07 0.09 0.10 0.11 0.06 0.02 0.01 0.01 0.00 0.00 0.00 0.00 0.00 0.00 0.00 0.00 0.00 0.01 0.01 0.01 0.01 0.02 0.02 0.02 0.02 0.03 0.03 0.04 0.04 0.03 0.03 0.02 0.03 0.03 0.04 0.05 0.06
0.04 0.04 0.02 0.02 0.03 0.03 0.03 0.05 0.08 0.07 0.06 0.03 0.01 0.01 0.01 0.00 0.00 0.00 0.00 0.00 0.00 0.00 0.00 0.00 0.00 0.00 0.00 0.00 0.01 0.01 0.02 0.02 0.02 0.03 0.03 0.04 0.04 0.04 0.04 0.03 0.03 0.03 0.04 0.05
0.03 0.03 0.02 0.02 0.02 0.02 0.03 0.04 0.05 0.06 0.04 0.03 0.02 0.01 0.00 0.00 0.00 0.00 0.00 0.00 0.00 0.00 0.00 0.00 0.00 0.00 0.00 0.00 0.00 0.00 0.01 0.01 0.02 0.02 0.02 0.02 0.04 0.05 0.06 0.05 0.04 0.04 0.04 0.04
0.03 0.03 0.02 0.02 0.03 0.03 0.03 0.04 0.05 0.08 0.06 0.03 0.01 0.01 0.01 0.01 0.00 0.00 0.00 0.00 0.00 0.00 0.00 0.00 0.00 0.00 0.00 0.00 0.00 0.00 0.00 0.00 0.01 0.01 0.01 0.01 0.02 0.03 0.04 0.05 0.05 0.04 0.04 0.04
0.03 0.04 0.03 0.03 0.04 0.04 0.04 0.04 0.05 0.06 0.05 0.04 0.02 0.02 0.02 0.01 0.00 0.00 0.00 0.00 0.00 0.00 0.00 0.00 0.00 0.00 0.00 0.00 0.00 0.00 0.00 0.00 0.00 0.00 0.01 0.01 0.01 0.01 0.02 0.02 0.04 0.04 0.04 0.04
0.04 0.06 0.04 0.03 0.02 0.02 0.03 0.03 0.04 0.06 0.05 0.03 0.03 0.02 0.01 0.00 0.00 0.00 0.00 0.00 0.00 0.00 0.00 0.00 0.00 0.00 0.00 0.00 0.00 0.00 0.00 0.00 0.00 0.00 0.00 0.00 0.01 0.01 0.01 0.02 0.02 0.03 0.03 0.03
0.06 0.07 0.05 0.04 0.03 0.03 0.03 0.02 0.02 0.04 0.04 0.04 0.03 0.02 0.00 0.00 0.00 0.00 0.00 0.00 0.00 0.00 0.00 0.00 0.00 0.00 0.00 0.00 0.00 0.00 0.00 0.00 0.00 0.00 0.00 0.00 0.00 0.01 0.01 0.01 0.01 0.01 0.02 0.02
0.06 0.06 0.04 0.03 0.03 0.02 0.03 0.03 0.02 0.03 0.04 0.02 0.01 0.00 0.00 0.01 0.00 0.00 0.00 0.00 0.00 0.00 0.00 0.00 0.00 0.00 0.00 0.00 0.00 0.00 0.00 0.00 0.00 0.00 0.00 0.00 0.00 0.00 0.00 0.00 0.01 0.01 0.01 0.01
0.03 0.03 0.02 0.01 0.01 0.01 0.02 0.03 0.03 0.03 0.03 0.02 0.01 0.01 0.01 0.01 0.01 0.00 0.00 0.00 0.00 0.00 0.00 0.00 0.00 0.00 0.00 0.00 0.00 0.00 0.00 0.00 0.00 0.00 0.00 0.01 0.01 0.01 0.01 0.01 0.01 0.01 0.01 0.01
0.02 0.02 0.01 0.01 0.01 0.01 0.01 0.02 0.02 0.02 0.02 0.02 0.01 0.01 0.01 0.01 0.01 0.01 0.00 0.00 0.00 0.00 0.00 0.00 0.00 0.00 0.00 0.00 0.00 0.00 0.00 0.00 0.00 0.00 0.00 0.00 0.00 0.01 0.01 0.01 0.01 0.01 0.01 0.01
0.02 0.02 0.02 0.01 0.00 0.01 0.02 0.01 0.02 0.02 0.02 0.02 0.03 0.02 0.02 0.01 0.01 0.01 0.01 0.01 0.01 0.01 0.00 0.00 0.00 0.00 0.00 0.00 0.00 0.00 0.00 0.00 0.00 0.00 0.00 0.00 0.00 0.00 0.00 0.00 0.01 0.01 0.01 0.01
0.02 0.02 0.03 0.02 0.01 0.02 0.01 0.01 0.01 0.01 0.01 0.01 0.01 0.01 0.01 0.01 0.01 0.01 0.01 0.01 0.01 0.01 0.00 0.00 0.00 0.00 0.00 0.00 0.00 0.00 0.00 0.00 0.00 0.00 0.00 0.00 0.00 0.00 0.00 0.00 0.00 0.01 0.01 0.01
0.01 0.02 0.03 0.02 0.02 0.01 0.01 0.01 0.01 0.01 0.00 0.00 0.01 0.01 0.01 0.01 0.01 0.01 0.02 0.01 0.01 0.01 0.01 0.01 0.01 0.01 0.01 0.01 0.00 0.00 0.00 0.00 0.00 0.00 0.00 0.00 0.00 0.00 0.00 0.00 0.00 0.00 0.01 0.01
0.00 0.01 0.02 0.02 0.02 0.01 0.01 0.00 0.01 0.00 0.00 0.00 0.00 0.00 0.00 0.00 0.00 0.00 0.00 0.01 0.01 0.01 0.01 0.01 0.01 0.01 0.01 0.01 0.01 0.01 0.01 0.00 0.00 0.00 0.00 0.00 0.00 0.00 0.00 0.00 0.00 0.00 0.00 0.00
0.01 0.02 0.02 0.01 0.01 0.01 0.00 0.00 0.00 0.00 0.00 0.00 0.00 0.00 0.00 0.00 0.00 0.00 0.00 0.00 0.00 0.00 0.00 0.00 0.00 0.00 0.00 0.00 0.00 0.00 0.00 0.00 0.00 0.00 0.00 0.00 0.00 0.00 0.00 0.00 0.00 0.00 0.00 0.00
0.00 0.01 0.01 0.01 0.01 0.00 0.00 0.00 0.00 0.00 0.00 0.00 0.00 0.00 0.00 0.00 0.00 0.00 0.00 0.00 0.00 0.00 0.00 0.00 0.00 0.00 0.00 0.00 0.00 0.00 0.00 0.00 0.00 0.00 0.00 0.00 0.00 0.00 0.00 0.00 0.00 0.00 0.00 0.00
0.00 0.00 0.00 0.01 0.01 0.00 0.00 0.00 0.00 0.00 0.00 0.00 0.00 0.00 0.00 0.00 0.00 0.00 0.00 0.00 0.00 0.00 0.00 0.00 0.00 0.00 0.00 0.00 0.00 0.00 0.01 0.01 0.00 0.00 0.00 0.00 0.00 0.00 0.00 0.00 0.00 0.00 0.00 0.00
0.00 0.00 0.00 0.00 0.00 0.00 0.00 0.00 0.00 0.00 0.00 0.00 0.00 0.00 0.00 0.00 0.00 0.00 0.00 0.00 0.00 0.00 0.00 0.00 0.00 0.00 0.00 0.00 0.00 0.00 0.00 0.01 0.01 0.01 0.01 0.01 0.01 0.00 0.00 0.00 0.00 0.00 0.00 0.00
0.00 0.00 0.00 0.00 0.00 0.00 0.00 0.00 0.00 0.00 0.00 0.00 0.00 0.00 0.00 0.00 0.00 0.00 0.00 0.00 0.00 0.00 0.00 0.00 0.00 0.00 0.00 0.00 0.00 0.00 0.00 0.01 0.01 0.01 0.01 0.01 0.01 0.01 0.01 0.00 0.00 0.00 0.01 0.01
0.00 0.00 0.00 0.00 0.00 0.00 0.01 0.00 0.00 0.00 0.00 0.00 0.00 0.00 0.00 0.00 0.00 0.00 0.00 0.00 0.00 0.00 0.00 0.00 0.00 0.00 0.00 0.00 0.00 0.00 0.00 0.00 0.01 0.01 0.01 0.01 0.01 0.01 0.01 0.01 0.01 0.01 0.01 0.01
MSLP
1022.57 1022.20 1021.77 1021.26 1020.67 1019.99 1019.23 1018.41 1017.53 1016.65 1015.80 1015.04 1014.40 1013.93 1013.65 1013.58 1013.71 1014.01 1014.43 1014.92 1015.41 1015.85 1016.20 1016.42 1016.52 1016.50 1016.38 1016.20 1015.98 1015.75 1015.55 1015.38 1015.26 1015.19 1015.18 1015.21 1015.30 1015.44 1015.61 1015.83 1016.07 1016.32 1016.59 1016.85
1022.71 1022.31 1021.86 1021.33 1020.72 1020.04 1019.28 1018.47 1017.62 1016.78 1015.98 1015.26 1014.66 1014.23 1013.99 1013.97 1014.15 1014.51 1015.00 1015.57 1016.14 1016.66 1017.08 1017.34 1017.45 1017.40 1017.22 1016.94 1016.61 1016.26 1015.93 1015.64 1015.40 1015.22 1015.11 1015.05 1015.05 1015.09 1015.18 1015.31 1015.47 1015.66 1015.87 1016.10
1022.91 1022.48 1021.99 1021.42 1020.78 1020.08 1019.33 1018.54 1017.75 1016.96 1016.22 1015.57 1015.04 1014.66 1014.47 1014.50 1014.72 1015.13 1015.67 1016.29 1016.91 1017.48 1017.93 1018.21 1018.31 1018.24 1018.01 1017.66 1017.25 1016.80 1016.38 1015.99 1015.66 1015.40 1015.19 1015.04 1014.94 1014.88 1014.86 1014.88 1014.93 1015.03 1015.17 1015.34
1023.23 1022.74 1022.18 1021.56 1020.88 1020.16 1019.42 1018.66 1017.91 1017.20 1016.54 1015.96 1015.50 1015.19 1015.05 1015.12 1015.37 1015.79 1016.35 1016.98 1017.61 1018.19 1018.63 1018.91 1019.00 1018.90 1018.63 1018.25 1017.79 1017.30 1016.83 1016.40 1016.02 1015.70 1015.43 1015.21 1015.01 1014.84 1014.70 1014.60 1014.53 1014.52 1014.56 1014.66
1023.68 1023.12 1022.49 1021.80 1021.08 1020.33 1019.59 1018.86 1018.17 1017.52 1016.94 1016.44 1016.05 1015.79 1015.70 1015.78 1016.03 1016.44 1016.97 1017.57 1018.17 1018.71 1019.12 1019.37 1019.43 1019.31 1019.03 1018.64 1018.17 1017.69 1017.23 1016.81 1016.44 1016.11 1015.81 1015.54 1015.27 1015.01 1014.76 1014.53 1014.34 1014.20 1014.12 1014.13
1024.30 1023.65 1022.94 1022.19 1021.42 1020.65 1019.91 1019.21 1018.56 1017.97 1017.46 1017.02 1016.69 1016.47 1016.39 1016.46 1016.69 1017.05 1017.52 1018.05 1018.58 1019.04 1019.39 1019.58 1019.61 1019.46 1019.19 1018.82 1018.40 1017.97 1017.56 1017.20 1016.88 1016.59 1016.31 1016.02 1015.71 1015.38 1015.03 1014.69 1014.38 1014.12 1013.93 1013.82
1025.07 1024.35 1023.57 1022.77 1021.96 1021.18 1020.44 1019.76 1019.15 1018.61 1018.14 1017.74 1017.43 1017.23 1017.14 1017.18 1017.35 1017.64 1018.02 1018.44 1018.86 1019.22 1019.48 1019.61 1019.59 1019.43 1019.17 1018.84 1018.48 1018.14 1017.83 1017.57 1017.33 1017.11 1016.88 1016.61 1016.29 1015.92 1015.50 1015.07 1014.65 1014.28 1013.98 1013.77
1025.96 1025.19 1024.37 1023.54 1022.73 1021.94 1021.22 1020.56 1019.98 1019.46 1019.01 1018.62 1018.32 1018.09 1017.96 1017.95 1018.04 1018.23 1018.50 1018.80 1019.10 1019.35 1019.51 1019.55 1019.48 1019.31 1019.07 1018.79 1018.51 1018.26 1018.06 1017.90 1017.78 1017.65 1017.48 1017.25 1016.95 1016.56 1016.10 1015.60 1015.11 1014.65 1014.25 1013.93
1026.90 1026.12 1025.31 1024.49 1023.70 1022.95 1022.26 1021.62 1021.05 1020.54 1020.08 1019.68 1019.34 1019.07 1018.88 1018.78 1018.78 1018.87 1019.02 1019.19 1019.37 1019.50 1019.56 1019.53 1019.41 1019.22 1018.98 1018.75 1018.53 1018.37 1018.27 1018.22 1018.18 1018.14 1018.05 1017.87 1017.59 1017.20 1016.73 1016.20 1015.65 1015.12 1014.65 1014.24
1027.80 1027.07 1026.32 1025.57 1024.85 1024.15 1023.50 1022.90 1022.33 1021.81 1021.32 1020.87 1020.47 1020.13 1019.86 1019.68 1019.58 1019.56 1019.60 1019.66 1019.73 1019.76 1019.72 1019.62 1019.45 1019.24 1019.01 1018.79 1018.62 1018.52 1018.49 1018.50 1018.53 1018.55 1018.50 1018.37 1018.12 1017.74 1017.28 1016.73 1016.16 1015.60 1015.07 1014.60
1028.59 1027.96 1027.32 1026.69 1026.07 1025.47 1024.88 1024.30 1023.73 1023.17 1022.63 1022.12 1021.64 1021.21 1020.86 1020.59 1020.40 1020.29 1020.24 1020.22 1020.19 1020.14 1020.03 1019.87 1019.66 1019.42 1019.17 1018.96 1018.80 1018.71 1018.70 1018.73 1018.78 1018.82 1018.79 1018.67 1018.44 1018.09 1017.63 1017.10 1016.53 1015.96 1015.41 1014.90
1029.24 1028.75 1028.26 1027.78 1027.28 1026.77 1026.25 1025.69 1025.11 1024.51 1023.90 1023.31 1022.74 1022.23 1021.80 1021.45 1021.19 1021.01 1020.89 1020.81 1020.72 1020.62 1020.46 1020.26 1020.01 1019.74 1019.47 1019.23 1019.04 1018.93 1018.88 1018.88 1018.90 1018.91 1018.86 1018.73 1018.50 1018.17 1017.74 1017.23 1016.69 1016.13 1015.59 1015.08
1029.75 1029.42 1029.10 1028.76 1028.39 1027.97 1027.49 1026.95 1026.34 1025.69 1025.01 1024.33 1023.68 1023.10 1022.59 1022.19 1021.88 1021.66 1021.50 1021.38 1021.27 1021.13 1020.95 1020.72 1020.44 1020.14 1019.83 1019.54 1019.30 1019.12 1019.00 1018.93 1018.87 1018.81 1018.72 1018.55 1018.31 1017.99 1017.58 1017.12 1016.62 1016.11 1015.60 1015.10
1030.18 1030.01 1029.83 1029.62 1029.34 1028.98 1028.52 1027.96 1027.32 1026.60 1025.85 1025.10 1024.39 1023.74 1023.19 1022.75 1022.42 1022.19 1022.02 1021.89 1021.76 1021.61 1021.41 1021.16 1020.86 1020.52 1020.17 1019.83 1019.52 1019.25 1019.03 1018.85 1018.70 1018.55 1018.38 1018.17 1017.91 1017.59 1017.21 1016.80 1016.36 1015.90 1015.44 1014.99
1030.62 1030.57 1030.48 1030.34 1030.10 1029.74 1029.26 1028.66 1027.96 1027.18 1026.37 1025.57 1024.81 1024.14 1023.58 1023.13 1022.80 1022.57 1022.40 1022.27 1022.14 1021.98 1021.78 1021.51 1021.18 1020.82 1020.42 1020.01 1019.62 1019.26 1018.94 1018.65 1018.39 1018.14 1017.89 1017.63 1017.35 1017.04 1016.70 1016.34 1015.96 1015.58 1015.17 1014.77
1031.15 1031.14 1031.08 1030.92 1030.65 1030.24 1029.70 1029.03 1028.26 1027.42 1026.57 1025.74 1024.98 1024.31 1023.77 1023.35 1023.04 1022.82 1022.66 1022.53 1022.39 1022.22 1022.00 1021.71 1021.36 1020.95 1020.51 1020.05 1019.59 1019.14 1018.73 1018.34 1017.98 1017.65 1017.33 1017.03 1016.73 1016.44 1016.14 1015.83 1015.52 1015.19 1014.84 1014.47
1031.80 1031.75 1031.62 1031.37 1030.99 1030.48 1029.82 1029.06 1028.22 1027.35 1026.48 1025.66 1024.93 1024.31 1023.81 1023.43 1023.16 1022.96 1022.81 1022.67 1022.51 1022.31 1022.05 1021.72 1021.33 1020.89 1020.41 1019.90 1019.39 1018.88 1018.39 1017.93 1017.50 1017.11 1016.74 1016.42 1016.12 1015.84 1015.58 1015.32 1015.06 1014.78 1014.47 1014.13
1032.51 1032.35 1032.07 1031.66 1031.12 1030.45 1029.66 1028.81 1027.91 1027.01 1026.17 1025.40 1024.74 1024.19 1023.77 1023.45 1023.21 1023.03 1022.86 1022.69 1022.49 1022.23 1021.92 1021.54 1021.11 1020.62 1020.11 1019.57 1019.02 1018.47 1017.94 1017.44 1016.97 1016.55 1016.17 1015.84 1015.55 1015.29 1015.06 1014.84 1014.61 1014.36 1014.07 1013.72
1033.18 1032.84 1032.36 1031.74 1031.00 1030.16 1029.25 1028.30 1027.38 1026.50 1025.70 1025.02 1024.45 1024.01 1023.67 1023.41 1023.21 1023.03 1022.84 1022.61 1022.34 1022.01 1021.62 1021.18 1020.69 1020.17 1019.62 1019.06 1018.49 1017.94 1017.40 1016.89 1016.41 1015.99 1015.61 1015.28 1015.01 1014.78 1014.57 1014.37 1014.16 1013.91 1013.60 1013.22
1033.62 1033.08 1032.38 1031.54 1030.61 1029.62 1028.60 1027.61 1026.69 1025.86 1025.15 1024.58 1024.13 1023.79 1023.54 1023.34 1023.15 1022.95 1022.72 1022.42 1022.07 1021.65 1021.18 1020.66 1020.12 1019.55 1018.98 1018.42 1017.86 1017.31 1016.79 1016.29 1015.83 1015.42 1015.05 1014.74 1014.49 1014.27 1014.07 1013.87 1013.65 1013.38 1013.03 1012.61
1033.68 1032.93 1032.02 1031.01 1029.93 1028.83 1027.76 1026.77 1025.89 1025.15 1024.56 1024.10 1023.78 1023.54 1023.36 1023.20 1023.01 1022.78 1022.48 1022.11 1021.66 1021.15 1020.60 1020.02 1019.43 1018.84 1018.26 1017.70 1017.15 1016.63 1016.13 1015.66 1015.22 1014.83 1014.49 1014.19 1013.94 1013.72 1013.52 1013.30 1013.05 1012.74 1012.34 1011.85
1033.23 1032.31 1031.25 1030.12 1028.96 1027.82 1026.77 1025.83 1025.05 1024.42 1023.95 1023.62 1023.40 1023.24 1023.11 1022.96 1022.76 1022.48 1022.12 1021.66 1021.13 1020.55 1019.93 1019.30 1018.68 1018.08 1017.50 1016.96 1016.44 1015.95 1015.47 1015.03 1014.61 1014.23 1013.90 1013.60 1013.34 1013.11 1012.88 1012.64 1012.34 1011.98 1011.53 1010.99
1032.25 1031.21 1030.08 1028.91 1027.75 1026.67 1025.69 1024.87 1024.21 1023.72 1023.37 1023.15 1023.01 1022.90 1022.79 1022.63 1022.39 1022.05 1021.62 1021.10 1020.51 1019.87 1019.22 1018.57 1017.95 1017.36 1016.80 1016.28 1015.79 1015.32 1014.86 1014.43 1014.02 1013.64 1013.29 1012.97 1012.69 1012.42 1012.16 1011.87 1011.54 1011.13 1010.64 1010.05
1030.79 1029.71 1028.59 1027.47 1026.41 1025.45 1024.62 1023.95 1023.45 1023.09 1022.86 1022.72 1022.62 1022.53 1022.41 1022.21 1021.92 1021.53 1021.04 1020.47 1019.85 1019.20 1018.54 1017.91 1017.30 1016.74 1016.22 1015.72 1015.25 1014.79 1014.34 1013.90 1013.47 1013.06 1012.67 1012.32 1011.99 1011.68 1011.38 1011.05 1010.67 1010.24 1009.72 1009.11
1029.01 1027.98 1026.94 1025.96 1025.06 1024.29 1023.65 1023.17 1022.82 1022.59 1022.45 1022.36 1022.28 1022.17 1022.01 1021.75 1021.40 1020.96 1020.44 1019.85 1019.23 1018.59 1017.97 1017.38 1016.82 1016.30 1015.81 1015.34 1014.87 1014.40 1013.93 1013.45 1012.97 1012.51 1012.07 1011.65 1011.27 1010.91 1010.56 1010.19 1009.80 1009.35 1008.83 1008.24
1027.14 1026.20 1025.32 1024.52 1023.85 1023.29 1022.88 1022.58 1022.39 1022.27 1022.19 1022.12 1022.02 1021.86 1021.64 1021.32 1020.91 1020.43 1019.89 1019.31 1018.71 1018.12 1017.56 1017.02 1016.52 1016.05 1015.58 1015.12 1014.64 1014.14 1013.62 1013.08 1012.53 1011.99 1011.47 1010.98 1010.53 1010.12 1009.73 1009.35 1008.95 1008.51 1008.03 1007.50
Thickness
5499 5505 5512 5520 5524 5531 5536 5542 5549 5557 5561 5565 5575 5586 5596 5603 5608 5614 5621 5626 5631 5635 5640 5642 5644 5647 5649 5651 5652 5654 5656 5657 5656 5656 5656 5657 5657 5657 5657 5656 5656 5656 5655 5654
5490 5494 5501 5505 5510 5515 5522 5529 5537 5543 5548 5553 5564 5575 5586 5591 5598 5605 5611 5617 5622 5626 5630 5631 5633 5635 5638 5641 5644 5646 5648 5649 5650 5651 5652 5652 5653 5653 5653 5652 5652 5651 5650 5649
5478 5485 5490 5493 5499 5505 5512 5518 5524 5528 5534 5542 5550 5566 5575 5583 5588 5594 5599 5605 5611 5615 5618 5622 5622 5624 5627 5629 5632 5635 5639 5641 5642 5642 5643 5643 5644 5646 5646 5647 5647 5646 5644 5644
5469 5474 5478 5484 5489 5495 5503 5509 5511 5514 5520 5530 5537 5551 5569 5573 5578 5582 5588 5593 5599 5603 5605 5608 5610 5612 5615 5618 5621 5624 5627 5630 5632 5633 5634 5635 5637 5639 5642 5642 5640 5639 5638 5637
5462 5466 5470 5476 5481 5486 5494 5498 5500 5503 5508 5514 5526 5531 5558 5561 5567 5574 5578 5581 5584 5588 5591 5594 5596 5599 5602 5605 5608 5612 5615 5618 5620 5623 5624 5626 5629 5631 5632 5632 5631 5631 5631 5630
5452 5456 5461 5467 5473 5476 5480 5485 5488 5492 5495 5501 5520 5524 5544 5550 5556 5561 5565 5567 5570 5573 5576 5579 5583 5585 5588 5590 5594 5597 5602 5605 5607 5609 5612 5614 5617 5619 5620 5621 5621 5622 5622 5622
5444 5450 5453 5457 5463 5468 5470 5474 5477 5482 5486 5501 5513 5516 5531 5537 5542 5546 5549 5552 5555 5558 5562 5565 5568 5571 5573 5576 5579 5582 5587 5590 5592 5595 5597 5601 5604 5607 5608 5608 5609 5610 5611 5612
5438 5446 5449 5451 5456 5460 5465 5469 5471 5478 5486 5497 5498 5509 5522 5522 5526 5530 5534 5537 5540 5543 5547 5550 5553 5556 5558 5561 5564 5567 5571 5574 5577 5580 5582 5585 5588 5591 5593 5594 5595 5596 5598 5600
5434 5441 5445 5447 5451 5454 5457 5461 5465 5464 5462 5471 5489 5499 5505 5508 5511 5515 5519 5523 5526 5529 5531 5534 5538 5540 5543 5546 5548 5551 5554 5557 5560 5563 5566 5569 5572 5574 5576 5578 5580 5581 5582 5583
5425 5429 5438 5441 5446 5448 5452 5455 5454 5452 5458 5469 5481 5490 5500 5500 5502 5503 5505 5508 5511 5513 5516 5518 5521 5524 5526 5529 5531 5534 5537 5539 5542 5545 5548 5550 5554 5556 5559 5561 5562 5563 5565 5567
5420 5420 5431 5436 5438 5442 5443 5444 5447 5448 5448 5460 5469 5485 5489 5488 5487 5488 5491 5492 5494 5496 5499 5502 5505 5507 5509 5511 5514 5516 5519 5522 5524 5527 5529 5532 5535 5538 5540 5542 5544 5545 5547 5549
5416 5418 5424 5430 5433 5433 5438 5441 5442 5442 5439 5447 5457 5471 5473 5473 5473 5474 5475 5476 5478 5480 5483 5485 5488 5490 5492 5494 5496 5499 5501 5504 5506 5508 5511 5514 5517 5519 5522 5523 5525 5527 5529 5531
5412 5410 5421 5431 5430 5427 5429 5431 5432 5432 5433 5437 5445 5463 5464 5464 5463 5462 5462 5464 5465 5466 5468 5470 5472 5474 5476 5477 5479 5481 5483 5485 5487 5489 5492 5495 5498 5501 5503 5505 5507 5509 5511 5513
5408 5403 5410 5425 5429 5424 5422 5425 5425 5424 5426 5431 5442 5455 5457 5455 5453 5452 5451 5451 5452 5453 5454 5456 5457 5459 5460 5461 5463 5464 5465 5467 5469 5471 5474 5476 5479 5482 5484 5486 5489 5490 5492 5495
5401 5398 5396 5403 5408 5411 5413 5416 5418 5419 5424 5426 5439 5443 5447 5444 5441 5440 5440 5440 5440 5440 5441 5441 5442 5444 5445 5446 5447 5447 5448 5449 5451 5453 5456 5458 5459 5462 5464 5467 5469 5471 5473 5475
5391 5389 5385 5389 5398 5398 5402 5410 5414 5417 5421 5423 5427 5432 5436 5433 5430 5429 5429 5429 5429 5429 5429 5429 5428 5429 5430 5431 5431 5432 5433 5433 5434 5437 5438 5440 5441 5443 5446 5448 5449 5451 5453 5455
5382 5378 5383 5393 5383 5388 5401 5410 5412 5414 5417 5419 5422 5429 5424 5420 5419 5417 5418 5417 5417 5417 5417 5416 5416 5415 5415 5416 5416 5416 5417 5417 5418 5419 5421 5422 5424 5426 5427 5428 5430 5432 5434 5436
5372 5370 5372 5378 5377 5395 5416 5406 5406 5408 5410 5411 5412 5412 5410 5408 5407 5406 5404 5402 5403 5403 5403 5403 5402 5402 5401 5400 5400 5400 5401 5401 5402 5403 5403 5404 5405 5407 5408 5410 5411 5413 5415 5417
5373 5369 5367 5369 5378 5391 5402 5400 5397 5399 5404 5404 5401 5401 5399 5396 5397 5400 5394 5390 5389 5389 5388 5387 5387 5386 5386 5385 5385 5385 5385 5385 5385 5386 5386 5387 5387 5389 5391 5392 5393 5394 5396 5399
5365 5363 5362 5360 5374 5382 5406 5396 5388 5390 5395 5399 5393 5392 5389 5386 5390 5396 5385 5379 5378 5376 5375 5373 5372 5371 5370 5370 5369 5369 5370 5370 5370 5370 5370 5370 5370 5371 5373 5374 5375 5376 5377 5380
5354 5354 5355 5356 5364 5379 5393 5384 5381 5382 5393 5388 5383 5381 5378 5376 5378 5376 5371 5368 5365 5364 5362 5360 5358 5357 5355 5354 5353 5353 5354 5354 5354 5353 5353 5353 5353 5354 5355 5356 5356 5357 5359 5361
5360 5358 5352 5350 5354 5374 5385 5375 5379 5385 5380 5375 5372 5369 5366 5365 5363 5360 5358 5355 5353 5351 5349 5346 5344 5343 5341 5338 5337 5338 5338 5338 5336 5335 5335 5336 5336 5337 5337 5338 5338 5338 5340 5342
5359 5368 5366 5364 5378 5384 5375 5374 5372 5368 5366 5364 5360 5357 5353 5351 5350 5348 5345 5343 5341 5338 5335 5331 5328 5327 5326 5323 5321 5321 5322 5320 5318 5318 5319 5319 5320 5321 5321 5321 5321 5321 5322 5323
5356 5353 5353 5353 5369 5370 5366 5362 5359 5355 5353 5351 5347 5344 5340 5338 5337 5334 5332 5329 5326 5323 5319 5315 5312 5311 5310 5308 5306 5305 5305 5303 5302 5302 5304 5304 5304 5306 5305 5304 5304 5305 5305 5306
5357 5346 5345 5347 5360 5358 5359 5355 5352 5347 5341 5338 5335 5331 5328 5325 5323 5320 5317 5314 5311 5307 5303 5300 5297 5296 5295 5292 5291 5289 5287 5286 5286 5286 5287 5287 5288 5288 5288 5288 5288 5288 5289 5288
5353 5350 5350 5360 5362 5355 5358 5351 5343 5337 5333 5328 5323 5320 5317 5311 5309 5305 5302 5298 5294 5290 5287 5284 5282 5280 5278 5276 5274 5272 5270 5268 5268 5270 5271 5271 5271 5272 5272 5272 5273 5273 5273 5273